Weather in Russell

New Zealand     35°15′38″S   174°07′22″E
temp.,
°C
wind,
m/s
gust,
m/s
humid.,
%
clouds,
%
prec.,
mm/h
press.,
hPa
HPBL,
m
8 may, sat
sat800:00+16ne4980100 0.3 1030780
03:00+17ne5978100 0.2 1029965
06:00+17ne4981100 0.4 1030746
09:00+17ne5983100 0.3 1031903
12:00+18nne4785100 0.8 1030863
15:00+18nne3786100 0.7 1029757
18:00+17nne3891100 1.1 1029489
21:00+17nne3893100 0.6 1029450
9 may, sun
sun900:00+16n3893100 0.8 1029344
03:00+16n1493100 0.1 1028168
06:00+16nnw1393100 0.1 1028117
09:00+18n288982 0.1 1028466
12:00+20nnw4665100 0.1 10271069
15:00+19nnw3676100 0.1 1026665
18:00+17nnw2487100 0.1 1026158
21:00+17wnw1391100 0.1 1027143
10 may, mon
mon1000:00+16wnw1292100 0.1 102693
03:00+16wnw128994 0.0 102684
06:00+16nnw118973 0.0 102664
09:00+18n1483100 0.0 1027304
12:00+21nne336753 0.0 1026964
15:00+20n347184 0.0 1025910
18:00+17n249471 0.2 1025141
21:00+16n249549 0.1 1026169
11 may, tue
tue1100:00+16n269594 0.1 1025264
03:00+16n2694100 0.1 1024275
06:00+16n2595100 0.2 1024215
09:00+18n389198 0.1 1024676
12:00+20nnw4874100 0.3 1023964
15:00+20nnw487644 0.4 1021892
18:00+18nw3991100 0.6 1021623
21:00+18nnw4109281 0.3 1021660
12 may, wed
wed1200:00+18nnw4118982 0.6 1021795
03:00+18nnw51288100 0.2 1019853
06:00+17nw41092100 1.2 1019618
09:00+17wnw31191100 0.3 1020705
12:00+20nw4973100 0.3 1018968
15:00+18wnw41092100 1.6 1017886
18:00+16wnw249596 1.8 1017186
21:00+15wsw129696 0.3 101863